This is the latest recevied weather packets stored in our database for station/object KI7CSN-13. If no packets are shown the sender has not sent any weather packets the latest 10 day(s).
| Time | Temp. | Humidity | Pressure | Rain* | Wind** | Luminosity | Snow |
|---|---|---|---|---|---|---|---|
| 1777798067 | 13.89° C | 27% | 982.6 hPa | 0 mm | - | - | - |
| 1777797767 | 15.56° C | 26% | 982.6 hPa | 0 mm | - | - | - |
| 1777797467 | 15° C | 26% | 982.9 hPa | 0 mm | - | - | - |
| 1777797167 | 15.56° C | 25% | 982.9 hPa | 0 mm | - | - | - |
| 1777796867 | 15.56° C | 26% | 983 hPa | 0 mm | - | - | - |
| 1777796567 | 15.56° C | 26% | 983 hPa | 0 mm | - | - | - |
| 1777796267 | 15.56° C | 25% | 983.1 hPa | 0 mm | - | - | - |
| 1777795967 | 15° C | 26% | 983.2 hPa | 0 mm | - | - | - |
| 1777795667 | 13.89° C | 26% | 983.2 hPa | 0 mm | - | - | - |
| 1777795367 | 15.56° C | 25% | 983.3 hPa | 0 mm | - | - | - |
| 1777795067 | 16.11° C | 24% | 983.2 hPa | 0 mm | - | - | - |
| 1777794767 | 16.67° C | 23% | 983.3 hPa | 0 mm | - | - | - |
| 1777794467 | 16.67° C | 24% | 983.3 hPa | 0 mm | - | - | - |
| 1777794167 | 16.11° C | 24% | 983.4 hPa | 0 mm | - | - | - |
| 1777793867 | 16.67° C | 24% | 983.4 hPa | 0 mm | - | - | - |
| 1777793567 | 17.78° C | 24% | 983.4 hPa | 0 mm | - | - | - |
| 1777793267 | 18.33° C | 23% | 983.5 hPa | 0 mm | - | - | - |
| 1777792967 | 18.33° C | 22% | 983.5 hPa | 0 mm | - | - | - |
| 1777792667 | 17.78° C | 24% | 983.5 hPa | 0 mm | - | - | - |
| 1777792367 | 17.78° C | 23% | 983.5 hPa | 0 mm | - | - | - |
| 1777792067 | 17.78° C | 23% | 983.5 hPa | 0 mm | - | - | - |
| 1777791767 | 17.78° C | 23% | 983.5 hPa | 0 mm | - | - | - |
| 1777791467 | 17.78° C | 23% | 983.7 hPa | 0 mm | - | - | - |
| 1777791167 | 17.22° C | 23% | 983.7 hPa | 0 mm | - | - | - |
| 1777790867 | 16.11° C | 25% | 983.8 hPa | 0 mm | - | - | - |
* Rain latest hour (hover to see other rain measurements)
** Current wind speed in m/s (hover to see current wind gust speed)